Flag for Australia Weather past 2 weeks in Perth, Western Australia, Australia

Now
84 °F

Sunny.


Feels Like: 84 °F
Forecast: 75 / 91 °F
Wind: 17 mph from East

Location: Belmont Perth Airport

Current Time: Feb 1, 2015 at 2:17:06 PM

Latest Report: Feb 1, 2015 at 1:30 PM


Visibility: 10 mi

Pressure: 29.89 "Hg

Humidity: 45%

Dew point: 61 °F

Location of PerthLocation

Historic Weather in Perth — Graph

°F

Perth temperature yesterday

Maximum temperature yesterday: 88 °F (at 3:30 PM)
Minimum temperature yesterday: 66 °F (at 6:00 AM)
Average temperature yesterday: 79 °F

Past Weeks' High & Low Weather Summary

 TemperatureHumidityPressure
High102 °F (Jan 20, 3:30 PM)100% (Jan 20, 3:00 AM)30.04 "Hg (Jan 20, 3:00 AM)
Low57 °F (Jan 20, 5:30 AM)11% (Jan 21, 10:00 AM)29.65 "Hg (Jan 27, 3:30 PM)
Average80 °F44%29.86 "Hg
* Reported Jan 17 1:00 PM — Feb 1 1:00 PM, Perth, Weather by CustomWeather, © 2014

Note: Actual official high and low records may vary slightly from our data, if they occured in-between our weather recording intervals... More about our weather records

Advertising

Perth weather history for previous 24 hours

 ConditionsComfort  
Time TempWeatherWind HumidityBarometerVisibility
1:00 PM
Feb 1
86 °FWarm.17 mph43%29.89 "HgN/A
12:48 PM84 °FSunny.18 mph45%29.92 "Hg10 mi
12:30 PM84 °FSunny.23 mph37%29.92 "Hg10 mi
12:00 PM82 °FScattered showers. Partly sunny.12 mph40%29.92 "HgN/A
11:30 AM79 °FSunny.12 mph42%29.95 "Hg10 mi
11:00 AM75 °FScattered showers. Partly sunny.9 mph47%29.95 "HgN/A
10:30 AM75 °FLight rain. Partly sunny.10 mph47%29.95 "HgN/A
10:00 AM75 °FSunny.9 mph47%29.95 "Hg10 mi
9:30 AM75 °FSunny.13 mph47%29.95 "Hg10 mi
9:00 AM75 °FSunny.3 mph47%29.95 "Hg10 mi
8:30 AM72 °FSunny.20 mph53%29.92 "Hg10 mi
8:00 AM72 °FSunny.20 mph53%29.92 "Hg10 mi
7:30 AM72 °FSunny.22 mph53%29.92 "Hg10 mi
7:00 AM70 °FSunny.17 mph57%29.92 "Hg10 mi
6:30 AM70 °FSunny.15 mph57%29.92 "Hg10 mi
6:00 AM68 °FSunny.20 mph60%29.92 "Hg10 mi
5:00 AM70 °FSunny.22 mph57%29.92 "Hg10 mi
4:00 AM70 °FClear.16 mph57%29.92 "Hg10 mi
3:00 AM72 °FClear.17 mph53%29.89 "Hg10 mi
2:30 AM72 °FClear.17 mph53%29.89 "Hg10 mi
2:00 AM73 °FClear.17 mph50%29.89 "Hg10 mi
1:30 AM73 °FClear.16 mph50%29.89 "Hg10 mi
1:00 AM75 °FClear.20 mph44%29.89 "Hg10 mi
12:30 AM77 °FClear.18 mph42%29.89 "Hg10 mi
12:00 AM77 °FClear.17 mph39%29.89 "Hg10 mi
11:00 PM
Jan 31
81 °FClear.16 mph34%29.92 "Hg10 mi
10:30 PM81 °FClear.14 mph32%29.92 "Hg10 mi
10:00 PM81 °FClear.16 mph34%29.92 "Hg10 mi
9:30 PM82 °FClear.14 mph32%29.92 "Hg10 mi
9:00 PM82 °FClear.12 mph32%29.89 "Hg10 mi
8:30 PM82 °FClear.12 mph35%29.89 "Hg10 mi
8:00 PM84 °FClear.10 mph31%29.89 "Hg10 mi
7:30 PM84 °FClear.12 mph31%29.89 "Hg10 mi
7:00 PM84 °FClear.10 mph35%29.89 "Hg10 mi
6:30 PM86 °FClear.15 mph33%29.89 "Hg10 mi
6:00 PM86 °FSunny.17 mph33%29.89 "Hg10 mi
5:30 PM88 °FSunny.16 mph33%29.89 "Hg10 mi
5:00 PM88 °FSunny.15 mph31%29.89 "Hg10 mi
4:30 PM88 °FSunny.14 mph33%29.89 "Hg10 mi
4:00 PM88 °FSunny.14 mph31%29.89 "Hg10 mi
3:30 PM88 °FSunny.17 mph27%29.92 "Hg10 mi
3:00 PM86 °FSunny.16 mph29%29.92 "Hg10 mi
2:30 PM86 °FSunny.17 mph29%29.92 "Hg10 mi
2:00 PM84 °FSunny.17 mph31%29.92 "Hg10 mi
Weather by CustomWeather, © 2014

See weather overviewHow to use our weather pages